DW5065 Weather Reports


time (UTC)temp
C
wind
direction
speed
KPH
gust
KPH
rain 1hr
cm
rain 24hr
cm
rain mn
cm
humidity
%
barometer
mb
20260504150903 16 0 0.0 0.0 0.00 0.00 0.00 48 1006.6
20260504140903 15 260 0.0 9.7 0.00 0.00 0.00 47 1006.7
20260504081803 3 0 0.0 0.0 0.00 0.00 0.00 92 1008.7
20260504080924 3 0 0.0 0.0 0.00 0.00 0.00 92 1008.6
20260504050003 2 0 0.0 0.0 0.00 0.00 0.00 86 1008.8
20260504045403 1 0 0.0 0.0 0.00 0.00 0.00 86 1009.0
20260504044503 1 0 0.0 0.0 0.00 0.00 0.00 85 1009.0
20260504043624 1 0 0.0 0.0 0.00 0.00 0.00 85 1008.9
20260504042703 1 0 0.0 0.0 0.00 0.00 0.00 85 1009.0
20260504041803 1 0 0.0 0.0 0.00 0.00 0.00 84 1009.1
20260504040903 1 0 0.0 0.0 0.00 0.00 0.00 84 1008.9
20260504040003 1 0 0.0 0.0 0.00 0.00 0.00 83 1008.9
20260504035404 1 0 0.0 0.0 0.00 0.00 0.00 83 1008.8
20260504034503 1 0 0.0 0.0 0.00 0.00 0.00 82 1008.8
20260504033624 1 0 0.0 0.0 0.00 0.00 0.00 82 1008.8
20260504032724 1 0 0.0 0.0 0.00 0.00 0.00 81 1008.7
20260504031803 1 0 0.0 0.0 0.00 0.00 0.00 80 1008.8
20260504030903 1 0 0.0 0.0 0.00 0.00 0.00 80 1008.9
20260504030003 1 0 0.0 0.0 0.00 0.00 0.00 79 1008.8
20260504025424 1 0 0.0 0.0 0.00 0.00 0.00 79 1008.8
20260504024503 2 0 0.0 0.0 0.00 0.00 0.00 78 1008.7
20260504023603 2 0 0.0 0.0 0.00 0.00 0.00 78 1008.7
20260504022703 2 0 0.0 0.0 0.00 0.00 0.00 76 1008.8
20260504021803 2 0 0.0 0.0 0.00 0.00 0.00 74 1008.8
20260504020903 3 0 0.0 0.0 0.00 0.00 0.00 72 1008.8
20260504020025 3 0 0.0 0.0 0.00 0.00 0.00 71 1008.6
20260504015424 3 0 0.0 0.0 0.00 0.00 0.00 70 1008.5
20260504014503 4 0 0.0 0.0 0.00 0.00 0.00 70 1008.5
20260504013603 4 0 0.0 0.0 0.00 0.00 0.00 69 1008.4
20260504012703 5 0 0.0 0.0 0.00 0.00 0.00 65 1008.3
20260504011803 5 0 0.0 0.0 0.00 0.00 0.00 66 1008.1
20260504010903 5 0 0.0 0.0 0.00 0.00 0.00 64 1007.9
20260504010004 6 0 0.0 0.0 0.00 0.00 0.00 63 1007.9
20260504005424 6 0 0.0 0.0 0.00 0.00 0.00 62 1007.8
20260504004503 6 0 0.0 0.0 0.00 0.00 0.00 60 1007.7
20260504003603 6 0 0.0 0.0 0.00 0.00 0.00 60 1007.6
20260504002703 7 0 0.0 0.0 0.00 0.00 0.00 58 1007.5
20260504001803 7 0 0.0 0.0 0.00 0.00 0.00 56 1007.4
20260504000903 8 0 0.0 0.0 0.00 0.00 0.00 52 1007.4
20260504000003 8 0 0.0 0.0 0.00 0.00 0.00 53 1007.2
20260503235404 8 0 0.0 0.0 0.00 0.00 0.00 54 1007.1
20260503234503 9 0 0.0 0.0 0.00 0.00 0.00 46 1007.1
20260503233603 10 0 0.0 0.0 0.00 0.00 0.00 45 1007.0
20260503232724 10 0 0.0 0.0 0.00 0.00 0.00 43 1006.9
20260503231803 10 0 0.0 0.0 0.00 0.00 0.00 42 1006.9
20260503230903 10 0 0.0 0.0 0.00 0.00 0.00 42 1006.9
20260503230003 10 0 0.0 0.0 0.00 0.00 0.00 42 1007.0
20260503225423 10 0 0.0 0.0 0.00 0.00 0.00 42 1007.0
20260503224503 10 0 0.0 0.0 0.00 0.00 0.00 42 1006.9
20260503223603 10 0 0.0 0.0 0.00 0.00 0.00 44 1006.9
20260503222703 10 0 0.0 0.0 0.00 0.00 0.00 44 1006.9
20260503221803 10 0 0.0 0.0 0.00 0.00 0.00 44 1006.9
20260503220903 10 0 0.0 0.0 0.00 0.00 0.00 44 1006.9
20260503220024 10 0 0.0 0.0 0.00 0.00 0.00 46 1006.9
20260503215403 10 319 0.0 4.8 0.00 0.00 0.00 44 1006.8
20260503214503 10 318 0.0 1.6 0.00 0.00 0.00 45 1006.8
20260503213603 10 0 0.0 0.0 0.00 0.00 0.00 45 1006.7
20260503212703 10 0 0.0 0.0 0.00 0.00 0.00 45 1006.8
20260503211802 10 0 0.0 0.0 0.00 0.00 0.00 45 1006.7
20260503210925 10 0 0.0 0.0 0.00 0.00 0.00 43 1006.7
20260503210003 10 303 0.0 1.6 0.00 0.00 0.00 44 1006.7
20260503205403 10 305 0.0 1.6 0.00 0.00 0.00 43 1006.7
20260503204524 10 289 0.0 19.3 0.00 0.00 0.00 45 1006.7
20260503203603 10 317 0.0 1.6 0.00 0.00 0.00 43 1006.8
20260503202724 10 0 0.0 0.0 0.00 0.00 0.00 43 1006.7
20260503201804 10 306 0.0 3.2 0.00 0.00 0.00 43 1006.7
20260503200903 10 319 0.0 1.6 0.00 0.00 0.00 42 1006.7
20260503200003 10 335 0.0 3.2 0.00 0.00 0.00 42 1006.7
20260503195403 10 345 0.0 12.9 0.00 0.00 0.00 42 1006.8
20260503194503 10 319 0.0 14.5 0.00 0.00 0.00 46 1006.8
20260503193603 10 302 0.0 3.2 0.00 0.00 0.00 44 1006.8
20260503192703 10 304 0.0 6.4 0.00 0.00 0.00 44 1006.9
20260503191803 10 343 0.0 3.2 0.00 0.00 0.00 46 1006.9
20260503190903 10 318 0.0 8.0 0.00 0.00 0.00 42 1006.8
20260503190003 11 310 0.0 8.0 0.00 0.00 0.00 41 1006.9
20260503185403 11 297 0.0 1.6 0.00 0.00 0.00 46 1006.8
20260503184524 10 299 0.0 4.8 0.00 0.00 0.00 45 1006.9
20260503183603 10 296 0.0 12.9 0.00 0.00 0.00 45 1006.8
20260503182724 10 313 1.6 22.5 0.00 0.00 0.00 44 1006.8
20260503181803 10 315 3.2 22.5 0.00 0.00 0.00 42 1006.6
20260503180903 11 304 0.0 16.1 0.00 0.00 0.00 39 1006.4
20260503180003 11 328 0.0 14.5 0.00 0.00 0.00 38 1006.3
20260503175403 12 0 0.0 0.0 0.00 0.00 0.00 37 1006.3
20260503174524 12 0 0.0 0.0 0.00 0.03 0.00 36 1006.3
20260503173603 11 292 0.0 3.2 0.00 0.03 0.00 39 1006.4
20260503172703 11 332 0.0 8.0 0.00 0.03 0.00 41 1006.3
20260503171803 10 312 0.0 8.0 0.00 0.03 0.00 41 1006.5
20260503170903 10 290 0.0 11.3 0.00 0.03 0.00 43 1006.4